Flag for Germany Weather past 2 weeks in Suhl, Thuringia, Germany

Now
70 °F

Sunny.


Feels Like: 76 °F
Forecast: 61 / 85 °F
Wind: 2 mph from East

Location: Meiningen

Current Time: Jul 1, 2015 at 9:31:35 AM

Latest Report: Jul 1, 2015 at 9:00 AM


Visibility: 19 mi

Pressure: 30.16 "Hg

Humidity: 58%

Dew point: 55 °F

Location of SuhlLocation

Historic Weather in Suhl — Graph

°F

Suhl temperature yesterday

Maximum temperature yesterday: 79 °F (at 6:00 PM)
Minimum temperature yesterday: 59 °F (at 4:00 AM)
Average temperature yesterday: 69 °F

Past Weeks' High & Low Weather Summary

 TemperatureHumidityPressure
High79 °F (Jun 30, 6:00 PM)100% (Jun 22, 7:00 AM)30.30 "Hg (Jun 22, 7:00 AM)
Low42 °F (Jun 17, 4:00 AM)31% (Jun 17, 7:00 PM)29.66 "Hg (Jun 23, 1:00 AM)
Average58 °F71%30.08 "Hg
* Reported Jun 16 8:00 AM — Jul 1 8:00 AM, Suhl, Weather by CustomWeather, © 2015

Note: Actual official high and low records may vary slightly from our data, if they occured in-between our weather recording intervals... More about our weather records

Advertising

Suhl weather history for previous 24 hours

 ConditionsComfort  
Time TempWeatherWind HumidityBarometerVisibility
8:00 AM
Wed, Jul 1
67 °FSunny.1 mph52%30.16 "Hg25 mi
7:00 AM63 °FSunny.1 mph70%30.17 "Hg16 mi
6:00 AM60 °FSunny.1 mph72%30.18 "Hg18 mi
4:00 AM60 °FClear.1 mph71%30.17 "Hg18 mi
3:00 AM62 °FClear.1 mph67%30.17 "Hg25 mi
2:00 AM62 °FClear.1 mph67%30.17 "Hg25 mi
1:00 AM65 °FClear.2 mph61%30.16 "Hg25 mi
12:00 AM66 °FClear.1 mph60%30.16 "Hg34 mi
10:00 PM
Tue, Jun 30
68 °FClear.3 mph54%30.14 "Hg37 mi
9:00 PM71 °FSunny.5 mph49%30.12 "Hg34 mi
8:00 PM75 °FSunny.5 mph42%30.10 "Hg31 mi
7:00 PM77 °FSunny.5 mph39%30.09 "Hg19 mi
6:00 PM79 °FSunny.3 mph33%30.09 "Hg40 mi
4:00 PM77 °FSunny.6 mph33%30.12 "Hg22 mi
3:00 PM77 °FSunny.2 mph34%30.11 "Hg28 mi
2:00 PM76 °FOvercast.3 mph33%30.13 "Hg28 mi
1:00 PM74 °FSunny.2 mph35%30.15 "Hg28 mi
12:00 PM74 °FSunny.3 mph45%30.15 "Hg25 mi
10:00 AM69 °FPassing clouds.5 mph50%30.17 "Hg22 mi
9:00 AM67 °FPassing clouds.3 mph62%30.18 "Hg17 mi
Weather by CustomWeather, © 2015

See weather overviewHow to use our weather pages